Printer-friendly version

IAU Minor Planet Center

Minor Planet Center

MPEC 2007-B58 : 2007 BG29

The following Minor Planet Electronic Circular may be linked-to from your own Web pages, but must not otherwise be redistributed electronically.


Read MPEC 2007-B57 Read MPEC 2007-B59


M.P.E.C. 2007-B58                                Issued 2007 Jan. 26, 20:31 UT

     The Minor Planet Electronic Circulars contain information on unusual
         minor planets and routine data on comets.  They are published
   on behalf of Commission 20 of the International Astronomical Union by the
          Minor Planet Center, Smithsonian Astrophysical Observatory,
                          Cambridge, MA 02138, U.S.A.

             Prepared using the Tamkin Foundation Computer Network

                              MPC@CFA.HARVARD.EDU
          URL http://cfa-www.harvard.edu/iau/mpc.html  ISSN 1523-6714

                                   2007 BG29

Observations:
     K07B29G* C2007 01 21.46158 15 12 37.48 +22 23 56.8          19.1   EB058704
     K07B29G  C2007 01 21.47383 15 12 40.44 +22 23 55.6          19.1   EB058704
     K07B29G  C2007 01 21.48650 15 12 43.39 +22 23 55.1          19.4   EB058704
     K07B29G  C2007 01 21.49875 15 12 46.32 +22 23 54.8          19.8   EB058704
     K07B29G  C2007 01 25.46500 15 29 06.05 +22 17 18.1          19.3   EB058704
     K07B29G  C2007 01 25.46711 15 29 06.42 +22 17 17.1          19.2 R EB058734
     K07B29G  C2007 01 25.46858 15 29 06.74 +22 17 16.8          19.3 R EB058734
     K07B29G  C2007 01 25.47003 15 29 07.13 +22 17 16.9          19.6 R EB058734
     K07B29G  C2007 01 25.47150 15 29 07.50 +22 17 17.0          19.1 R EB058734
     K07B29G  C2007 01 25.47296 15 29 07.86 +22 17 16.6          19.2 R EB058734
     K07B29G  C2007 01 25.47750 15 29 09.19 +22 17 17.0          19.3   EB058704
     K07B29G  C2007 01 25.50243 15 29 15.26 +22 17 14.4          19.2   EB058704

Observer details:
704 Lincoln Laboratory ETS, New Mexico.  Observers M. Bezpalko, D. Torres,
    R. Kracke, G. Spitz, J. Kistler.  Measurers J. Stuart, S. Scruggs.  1.0-m
    f/2.15 reflector + CCD.
734 Farpoint Observatory.  Observer G. Hug.  0.7-m reflector + CCD.

Orbital elements:
2007 BG29                                                Earth MOID = 0.1179 AU
Epoch 2007 Apr. 10.0 TT = JDT 2454200.5                 MPC
M 316.81214              (2000.0)            P               Q
n   1.35217985     Peri.  250.36871     +0.56874920     +0.78500504
a   0.8099280      Node    56.74984     -0.60070290     +0.60035668
e   0.3355885      Incl.   17.07432     -0.56185441     +0.15277089
P   0.73           H   18.4           G   0.15           U   9
Residuals in seconds of arc
070121 704  0.0   0.4+    070125 704  0.4-  0.1-    070125 734  0.2+  0.3+
070121 704  0.5+  0.3-    070125 734  0.2+  0.1-    070125 734  0.2+  0.0
070121 704  0.4-  0.2-    070125 734  0.4-  0.3-    070125 704  0.4+  0.1+
070121 704  0.1-  0.1+    070125 734  0.1+  0.0     070125 704  0.4-  0.2+

Ephemeris:
2007 BG29                a,e,i = 0.81, 0.34, 17                  q = 0.5381
Date    TT    R. A. (2000) Decl.     Delta      r     Elong.  Phase     V
2007 01 20    15 06.73   +22 25.5    0.504    1.063    84.6    67.2    19.4
2007 01 30    15 48.47   +22 04.2    0.466    1.040    83.4    70.1    19.3
2007 02 09    16 34.57   +21 05.2    0.430    1.010    80.6    74.5    19.2
2007 02 19    17 26.35   +19 06.2    0.399    0.971    75.8    80.7    19.2
2007 03 01    18 24.73   +15 41.1    0.377    0.924    68.8    88.8    19.2

Timothy B. Spahr             (C) Copyright 2007 MPC           M.P.E.C. 2007-B58

Read MPEC 2007-B57 Read MPEC 2007-B59


Our Web policy. Index to the CBAT/MPC/ICQ pages.


Valid HTML 4.01!